• In Lithuania
  • List of Countries
  • For 7 days
  • Water Temperature
  • Satellite Maps
  • Weather Map
  • Weather Widgets
  • user-avatar
    Login

    Hourly Weather Staraya Bezginka

    Today, 14 November, Wednesday

    Time Temperature Precipitation Wind Pressure Humidity
    00:00 -8°C° 0 mm 4 mps 764 mmHg 33%
    01:00 -7°C° 0 mm 3 mps 764 mmHg 35%
    02:00 -7°C° 0 mm 3 mps 763 mmHg 36%
    03:00 -7°C° 0 mm 3 mps 763 mmHg 44%
    04:00 -7°C° 0 mm 3 mps 763 mmHg 46%
    05:00 -7°C° 0 mm 3 mps 762 mmHg 47%
    06:00 -7°C° 0 mm 3 mps 762 mmHg 48%
    07:00 -8°C° 0 mm 4 mps 762 mmHg 48%
    08:00 -8°C° 0 mm 4 mps 761 mmHg 49%
    09:00 -7°C° 0 mm 4 mps 761 mmHg 49%
    10:00 -5°C° 0 mm 4 mps 761 mmHg 47%
    11:00 -4°C° 0 mm 4 mps 760 mmHg 46%
    12:00 -3°C° 0 mm 4 mps 760 mmHg 44%
    13:00 -2°C° 0 mm 4 mps 759 mmHg 44%
    14:00 -2°C° 0 mm 4 mps 759 mmHg 45%
    15:00 -1°C° 0 mm 4 mps 759 mmHg 45%
    16:00 -2°C° 0 mm 4 mps 759 mmHg 51%
    17:00 -3°C° 0 mm 4 mps 759 mmHg 56%
    18:00 -4°C° 0 mm 3 mps 758 mmHg 61%
    19:00 -4°C° 0 mm 3 mps 759 mmHg 65%
    20:00 -4°C° 0 mm 4 mps 759 mmHg 69%
    21:00 -4°C° 0 mm 4 mps 759 mmHg 73%
    22:00 -5°C° 0 mm 4 mps 759 mmHg 76%
    23:00 -5°C° 0 mm 3 mps 759 mmHg 79%

    Tomorrow, 15 November, Thursday

    Time Temperature Precipitation Wind Pressure Humidity
    00:00 -5°C° 0 mm 3 mps 759 mmHg 82%
    01:00 -5°C° 0 mm 3 mps 759 mmHg 82%
    02:00 -5°C° 0 mm 3 mps 759 mmHg 82%
    03:00 -5°C° 0 mm 3 mps 759 mmHg 82%
    04:00 -5°C° 0 mm 3 mps 759 mmHg 81%
    05:00 -6°C° 0 mm 3 mps 759 mmHg 80%
    06:00 -6°C° 0 mm 3 mps 759 mmHg 79%
    07:00 -5°C° 0 mm 3 mps 760 mmHg 76%
    08:00 -5°C° 0 mm 3 mps 760 mmHg 72%
    09:00 -5°C° 0 mm 4 mps 760 mmHg 69%
    10:00 -4°C° 0 mm 4 mps 760 mmHg 63%
    11:00 -3°C° 0 mm 4 mps 760 mmHg 58%
    12:00 -1°C° 0 mm 4 mps 760 mmHg 52%
    13:00 -1°C° 0 mm 4 mps 760 mmHg 51%
    14:00 -1°C° 0 mm 4 mps 760 mmHg 50%
    15:00 0°C° 0 mm 4 mps 760 mmHg 49%
    16:00 -2°C° 0 mm 4 mps 761 mmHg 52%
    17:00 -3°C° 0 mm 4 mps 761 mmHg 55%
    18:00 -4°C° 0 mm 3 mps 761 mmHg 59%
    19:00 -4°C° 0 mm 3 mps 762 mmHg 56%
    20:00 -4°C° 0 mm 3 mps 762 mmHg 54%
    21:00 -5°C° 0 mm 3 mps 762 mmHg 51%
    22:00 -5°C° 0 mm 3 mps 762 mmHg 48%
    23:00 -5°C° 0 mm 3 mps 763 mmHg 44%

    Day after tomorrow, 16 November, Friday

    Time Temperature Precipitation Wind Pressure Humidity
    00:00 -5°C° 0 mm 3 mps 763 mmHg 41%
    01:00 -5°C° 0 mm 3 mps 763 mmHg 41%
    02:00 -5°C° 0 mm 4 mps 763 mmHg 40%
    03:00 -5°C° 0 mm 4 mps 763 mmHg 40%
    04:00 -5°C° 0 mm 4 mps 763 mmHg 40%
    05:00 -5°C° 0 mm 4 mps 763 mmHg 40%
    06:00 -7°C° 0 mm 4 mps 763 mmHg 40%
    07:00 -5°C° 0 mm 4 mps 764 mmHg 39%
    08:00 -6°C° 0 mm 5 mps 764 mmHg 37%
    09:00 -6°C° 0 mm 5 mps 764 mmHg 35%
    10:00 -5°C° 0 mm 5 mps 764 mmHg 31%
    11:00 -4°C° 0 mm 5 mps 764 mmHg 27%
    12:00 -1°C° 0 mm 5 mps 764 mmHg 23%
    13:00 -1°C° 0 mm 5 mps 764 mmHg 23%
    14:00 -1°C° 0 mm 5 mps 764 mmHg 23%
    15:00 0°C° 0 mm 5 mps 764 mmHg 22%
    16:00 -1°C° 0 mm 5 mps 764 mmHg 24%
    17:00 -2°C° 0 mm 5 mps 764 mmHg 27%
    18:00 -4°C° 0 mm 5 mps 764 mmHg 29%
    19:00 -4°C° 0 mm 5 mps 764 mmHg 29%
    20:00 -4°C° 0 mm 4 mps 764 mmHg 30%
    21:00 -4°C° 0 mm 4 mps 764 mmHg 31%
    22:00 -4°C° 0 mm 4 mps 764 mmHg 31%
    23:00 -4°C° 0 mm 4 mps 764 mmHg 32%

    17 November, Saturday

    Time Temperature Precipitation Wind Pressure Humidity
    00:00 -5°C° 0 mm 4 mps 764 mmHg 33%
    01:00 -5°C° 0 mm 4 mps 764 mmHg 33%
    02:00 -5°C° 0 mm 4 mps 764 mmHg 33%
    03:00 -5°C° 0 mm 4 mps 764 mmHg 33%
    04:00 -5°C° 0 mm 4 mps 764 mmHg 34%
    05:00 -5°C° 0 mm 4 mps 763 mmHg 34%
    06:00 -5°C° 0 mm 4 mps 763 mmHg 34%
    07:00 -5°C° 0 mm 4 mps 763 mmHg 33%
    08:00 -5°C° 0 mm 4 mps 763 mmHg 32%
    09:00 -5°C° 0 mm 4 mps 763 mmHg 31%
    10:00 -3°C° 0 mm 4 mps 763 mmHg 29%
    11:00 -2°C° 0 mm 4 mps 762 mmHg 27%
    12:00 -1°C° 0 mm 4 mps 762 mmHg 25%
    13:00 -1°C° 0 mm 4 mps 762 mmHg 25%
    14:00 0°C° 0 mm 4 mps 761 mmHg 25%
    15:00 +1°C° 0 mm 3 mps 761 mmHg 25%
    16:00 0°C° 0 mm 3 mps 760 mmHg 27%
    17:00 -2°C° 0 mm 3 mps 760 mmHg 28%
    18:00 -4°C° 0 mm 3 mps 760 mmHg 30%
    19:00 -3°C° 0 mm 2 mps 759 mmHg 29%
    20:00 -3°C° 0 mm 2 mps 759 mmHg 28%
    21:00 -3°C° 0 mm 2 mps 759 mmHg 28%
    22:00 -2°C° 0 mm 1 mps 758 mmHg 27%
    23:00 -2°C° 0 mm 1 mps 758 mmHg 27%

    18 November, Sunday

    Time Temperature Precipitation Wind Pressure Humidity
    00:00 -3°C° 0 mm 0 mps 757 mmHg 27%
    01:00 -2°C° 0 mm 1 mps 757 mmHg 27%
    02:00 -2°C° 0 mm 1 mps 756 mmHg 27%
    03:00 -2°C° 0 mm 1 mps 755 mmHg 27%
    04:00 -2°C° 0 mm 1 mps 755 mmHg 27%
    05:00 -4°C° 0 mm 2 mps 754 mmHg 28%
    06:00 -4°C° 0 mm 2 mps 753 mmHg 28%
    07:00 -4°C° 0 mm 2 mps 753 mmHg 28%
    08:00 -4°C° 0 mm 2 mps 753 mmHg 28%
    09:00 -4°C° 0 mm 2 mps 752 mmHg 28%
    10:00 -2°C° 0 mm 3 mps 752 mmHg 27%
    11:00 -1°C° 0 mm 3 mps 751 mmHg 26%
    12:00 0°C° 0 mm 3 mps 751 mmHg 25%
    13:00 0°C° 0 mm 3 mps 751 mmHg 28%
    14:00 0°C° 0 mm 3 mps 750 mmHg 31%
    15:00 +1°C° 0 mm 2 mps 750 mmHg 33%
    16:00 -1°C° 0 mm 2 mps 750 mmHg 37%
    17:00 -1°C° 0 mm 2 mps 750 mmHg 41%
    18:00 -2°C° 0 mm 2 mps 750 mmHg 45%
    19:00 -3°C° 0.1 mm 2 mps 750 mmHg 47%
    20:00 -3°C° 0.1 mm 2 mps 750 mmHg 49%
    21:00 -3°C° 0.1 mm 2 mps 750 mmHg 51%
    22:00 -3°C° 0 mm 2 mps 750 mmHg 49%
    23:00 -3°C° 0 mm 2 mps 751 mmHg 48%

    19 November, Monday

    Time Temperature Precipitation Wind Pressure Humidity
    00:00 -3°C° 0 mm 2 mps 751 mmHg 47%
    01:00 -3°C° 0 mm 2 mps 751 mmHg 46%
    02:00 -4°C° 0 mm 2 mps 751 mmHg 46%
    03:00 -5°C° 0 mm 3 mps 752 mmHg 46%
    04:00 -5°C° 0 mm 3 mps 752 mmHg 47%
    05:00 -5°C° 0 mm 3 mps 753 mmHg 48%
    06:00 -5°C° 0 mm 3 mps 753 mmHg 50%
    07:00 -5°C° 0 mm 3 mps 754 mmHg 52%
    08:00 -4°C° 0 mm 3 mps 754 mmHg 53%
    09:00 -4°C° 0 mm 3 mps 755 mmHg 55%
    10:00 -3°C° 0 mm 4 mps 756 mmHg 56%
    11:00 -2°C° 0 mm 4 mps 756 mmHg 56%
    12:00 0°C° 0 mm 4 mps 757 mmHg 56%
    13:00 0°C° 0 mm 4 mps 757 mmHg 58%
    14:00 0°C° 0 mm 4 mps 757 mmHg 61%
    15:00 0°C° 0 mm 4 mps 758 mmHg 63%
    16:00 -1°C° 0 mm 4 mps 758 mmHg 64%
    17:00 -2°C° 0 mm 4 mps 758 mmHg 66%
    18:00 -3°C° 0 mm 4 mps 759 mmHg 68%
    19:00 -3°C° 0 mm 4 mps 759 mmHg 63%
    20:00 -3°C° 0 mm 4 mps 759 mmHg 59%
    21:00 -4°C° 0 mm 3 mps 759 mmHg 55%
    22:00 -4°C° 0 mm 3 mps 760 mmHg 52%
    23:00 -4°C° 0 mm 3 mps 760 mmHg 50%
    Show more